TimeCST,TemperatureF,Dew PointF,Humidity,Sea Level PressureIn,VisibilityMPH,Wind Direction,Wind SpeedMPH,Gust SpeedMPH,PrecipitationIn,Events,Conditions,WindDirDegrees,DateUTC
12:53 AM,30.0,25.0,82,30.03,5.0,NW,24.2,33.4,N/A,,Haze,320,2013-02-03 06:53:00
1:01 AM,28.4,24.8,86,30.00,1.8,NNW,23.0,29.9,0.00,Snow,Light Snow,340,2013-02-03 07:01:00
1:07 AM,28.4,24.8,86,30.00,0.8,NNW,20.7,28.8,0.00,Snow,Light Snow,330,2013-02-03 07:07:00
1:10 AM,28.4,24.8,86,30.00,1.0,NW,19.6,28.8,0.00,Snow,Light Snow,320,2013-02-03 07:10:00
1:25 AM,26.6,24.8,93,30.01,3.0,NNW,16.1,-,0.00,Snow,Light Snow,330,2013-02-03 07:25:00
1:32 AM,26.6,23.0,86,30.01,6.0,NNW,18.4,-,0.00,,Overcast,330,2013-02-03 07:32:00
1:48 AM,26.6,21.2,80,30.03,2.5,NNW,29.9,38.0,0.02,,Haze,330,2013-02-03 07:48:00
1:53 AM,25.0,21.0,85,30.06,2.5,NNW,25.3,38.0,0.02,,Overcast,330,2013-02-03 07:53:00
2:02 AM,24.8,19.4,80,30.04,4.0,NW,21.9,32.2,N/A,,Haze,320,2013-02-03 08:02:00
2:20 AM,21.2,15.8,80,30.06,2.5,NNW,26.5,35.7,0.00,,Overcast,340,2013-02-03 08:20:00
2:27 AM,21.2,15.8,80,30.07,5.0,NNW,21.9,33.4,0.00,,Haze,340,2013-02-03 08:27:00
2:53 AM,21.0,16.0,81,30.11,7.0,NW,17.3,-,0.00,Snow,Light Snow,320,2013-02-03 08:53:00
3:37 AM,21.2,15.8,80,30.07,8.0,NW,19.6,27.6,0.00,,Overcast,310,2013-02-03 09:37:00
3:53 AM,21.0,14.0,74,30.11,7.0,WNW,23.0,29.9,0.00,,Overcast,300,2013-02-03 09:53:00
4:53 AM,19.0,12.9,77,30.13,10.0,WNW,15.0,23.0,N/A,,Clear,300,2013-02-03 10:53:00
5:53 AM,18.0,10.9,74,30.15,10.0,NW,21.9,27.6,N/A,,Clear,310,2013-02-03 11:53:00
6:53 AM,16.0,10.0,77,30.19,10.0,NW,11.5,-,N/A,,Clear,310,2013-02-03 12:53:00
7:53 AM,15.1,10.0,80,30.17,10.0,WNW,8.1,-,N/A,,Clear,300,2013-02-03 13:53:00
8:53 AM,17.1,10.9,77,30.20,10.0,WNW,10.4,-,N/A,,Clear,290,2013-02-03 14:53:00
9:53 AM,19.0,10.9,71,30.19,10.0,WNW,11.5,-,N/A,,Clear,290,2013-02-03 15:53:00
10:53 AM,19.9,12.9,74,30.18,10.0,WSW,8.1,-,N/A,,Overcast,250,2013-02-03 16:53:00
11:53 AM,21.9,14.0,72,30.16,10.0,WSW,8.1,-,N/A,,Overcast,240,2013-02-03 17:53:00
12:53 PM,24.1,16.0,71,30.12,10.0,SW,9.2,-,N/A,,Overcast,230,2013-02-03 18:53:00
1:53 PM,27.0,18.0,69,30.08,10.0,SW,10.4,-,N/A,,Scattered Clouds,220,2013-02-03 19:53:00
2:53 PM,28.9,19.0,67,30.04,10.0,SSW,8.1,-,N/A,,Clear,200,2013-02-03 20:53:00
3:53 PM,30.9,19.9,64,30.02,10.0,SSW,10.4,-,N/A,,Mostly Cloudy,200,2013-02-03 21:53:00
4:53 PM,30.0,18.0,61,29.99,10.0,South,8.1,-,N/A,,Clear,190,2013-02-03 22:53:00
5:53 PM,27.0,17.1,66,29.98,10.0,South,6.9,-,N/A,,Clear,190,2013-02-03 23:53:00
6:53 PM,26.1,17.1,69,29.97,10.0,SE,4.6,-,N/A,,Clear,140,2013-02-04 00:53:00
7:53 PM,25.0,17.1,72,29.93,10.0,SSE,6.9,-,N/A,,Clear,160,2013-02-04 01:53:00
8:53 PM,25.0,17.1,72,29.91,10.0,SE,6.9,-,N/A,,Clear,140,2013-02-04 02:53:00
9:53 PM,24.1,16.0,71,29.88,10.0,SE,6.9,-,N/A,,Clear,140,2013-02-04 03:53:00
10:53 PM,23.0,17.1,78,29.84,10.0,SSE,5.8,-,N/A,,Clear,150,2013-02-04 04:53:00
11:53 PM,24.1,18.0,77,29.81,10.0,SE,4.6,-,N/A,,Partly Cloudy,140,2013-02-04 05:53:00